Regional Weather Roundup
Issued by NWS

Home | Current Version | Previous Version | Text Only | Print | Product List | Glossary Off
Versions: 1 2 3 4 5 6 7 8 9 10 11 12 13 14 15 16 17 18 19 20 21 22 23 24 25 26 27 28 29 30 31 32 33 34 35 36 37 38 39 40 41 42 43 44 45 46 47 48 49 50

000
ASUS45 KTFX 261310
RWRMT
MONTANA REGIONAL WEATHER ROUNDUP
NATIONAL WEATHER SERVICE GREAT FALLS MT
700 AM MDT WED APR 26 2017

NOTE: "FAIR" INDICATES FEW OR NO CLOUDS BELOW 12000 FEET WITH NO
SIGNIFICANT WEATHER AND/OR OBSTRUCTIONS TO VISIBILITY.

MTZ001>007-043-261400-
WEST OF THE DIVIDE

CITY           SKY/WX    TMP DP  RH WIND       PRES   REMARKS
KALISPELL      LGT RAIN  39  39 100 CALM      29.72S
MISSOULA       LGT RAIN  41  39  93 SE6       29.74F
BUTTE          CLOUDY    34  29  82 S3        29.74F
MULLAN PASS    LGT SNOW  30  30 100 CALM      29.68F VSB 3/4
ANACONDA         N/A     34  30  86 CALM      29.74F
DEER LODGE       N/A     34  34 100 CALM      29.77F
EUREKA           N/A     41  36  81 S9        29.70F
HAMILTON         N/A     39  37  93 S6        29.73F
PLAINS           N/A     41  36  82 MISG      29.76S
THOMPSON FALLS   N/A     40  38  93 CALM      29.80F
$$

MTZ008-052>055-261400-
SOUTHWEST MONTANA

CITY           SKY/WX    TMP DP  RH WIND       PRES   REMARKS
BOZEMAN        CLOUDY    38  36  92 E5        29.76F
DILLON         MOCLDY    36  30  79 S8        29.75F WCI  30
W YELLOWSTONE  CLOUDY    30  28  93 SW6       29.79S WCI  24
ENNIS          CLOUDY    36  34  93 SW12      29.80  WCI  27
THREE FORKS      N/A     38  38 100 CALM      29.78S
TWIN BRIDGES     N/A     37  31  79 E5        29.77F
$$

MTZ009-010-012-014-046-048-049-054-261400-
EAST SLOPES AND CENTRAL MONTANA

CITY           SKY/WX    TMP DP  RH WIND       PRES   REMARKS
CUT BANK       CLOUDY    34  33  96 E6        29.71F FOG     WCI  29
GREAT FALLS    CLEAR     34  31  88 SE7       29.72F WCI  28
MALMSTROM AFB  CLOUDY    32  31  99 SE7       29.74S WCI  25
HELENA         CLOUDY    36  34  92 W5        29.75S
AUGUSTA        FOG       32  33 100 CALM      29.70F VSB 1/2
BOWMANS CRNR   MOCLDY    33  32  98 S9        29.69S WCI  25
CHOTEAU          N/A     34  34 100 S8        29.73S WCI  27
FAIRFIELD      FOG       32  31  96 E7        29.71F VSB 5/16WCI  26
POWER            N/A     31  31  99 SE8       29.71F WCI  24
RAYNESFORD       N/A     31  29  94 E15       29.73F WCI  20
ULM            MOCLDY    35  33  94 E3        29.72F
$$

MTZ011-013-016-021-045-047-050-051-261400-
NORTH CENTRAL MONTANA

CITY           SKY/WX    TMP DP  RH WIND       PRES   REMARKS
HAVRE          CLOUDY    38  36  92 E7        29.77F
LEWISTOWN      CLEAR     30  28  92 E7        29.75F WCI  23
N BAR RANCH    CLOUDY    30  28  93 CALM      29.79S
CHINOOK          N/A     37  32  81 E9        29.79F WCI  31
DENTON         FOG       33  33  99 MISG      29.73F VSB 5/16
FORT BENTON      N/A     36  36 100 MISG      29.77S
GEYSER         FOG       32  31  99 NW5       29.74F VSB 1/4
GRASS RANGE    CLOUDY    29  29 100 NW3       29.74S
JUDITH GAP     CLOUDY    33  32  96 S9        29.75S WCI  25
STANFORD         N/A     28  29 100 CALM      29.73F
WINIFRED       FOG       32 N/A N/A E6        29.76F VSB 1/4 WCI  26
$$

MTZ017>020-022>027-061-062-261400-
NORTHEAST MONTANA

CITY           SKY/WX    TMP DP  RH WIND       PRES   REMARKS
GLASGOW        CLOUDY    34  25  69 SE12      29.89S WCI  25
JORDAN           N/A     31  25  78 CALM      29.87R
SIDNEY         SUNNY     27  24  89 NE7       29.94S WCI  19
WOLF POINT     CLOUDY    35  27  72 E7        29.93S WCI  29
MALTA          CLOUDY    37  30  75 SE9       29.85S WCI  31
PLENTYWOOD       N/A     27  21  80 E7        29.95S WCI  19
POPLAR           N/A     34  25  69 SE6       29.94S WCI  29
SCOBEY           N/A     30  18  61 E8        29.91R WCI  22
$$

MTZ028>42-056>058-261400-
SOUTHCENTRAL AND SOUTHEAST MONTANA

CITY           SKY/WX    TMP DP  RH WIND       PRES   REMARKS
BAKER          CLOUDY    30  25  81 W3        29.89R
BILLINGS       CLOUDY    34  29  82 S5        29.81R
LIVINGSTON     LGT RAIN  35  34  96 CALM      29.76S
MILES CITY     CLOUDY    35  25  66 SE5       29.87S
BIG TIMBER     CLOUDY    34  34 100 CALM      29.80S FOG
EKALAKA          N/A     28  20  72 CALM      29.85R
LAUREL           N/A     33  22  64 CALM      29.80F
ROUNDUP          N/A     35  27  73 SE5       29.74R
$$

REGIONAL REPORTS...DAKOTAS

CITY           SKY/WX    TMP DP  RH WIND       PRES   REMARKS
WILLISTON      SUNNY     28  21  75 N6        29.96R WCI  22
MINOT          MOSUNNY   27  21  78 N12       29.93S WCI  17
DICKINSON      CLOUDY    30  23  75 NE9       29.88R WCI  22
BEACH          CLOUDY    30  28  93 CALM      29.92S
TIOGA            N/A     23  23 100 NE5       29.95F
WATFORD CITY     N/A     25  23  93 N3        29.94R
BISMARCK       CLOUDY    32  23  69 N13       29.89R WCI  22
GRAND FORKS    CLOUDY    31  26  82 N20       29.84R WCI  19
FARGO          LGT SNOW  29  26  89 N18G28    29.76S FOG     WCI  16
BUFFALO SD       N/A     31  25  78 NW7       29.80S WCI  24
RAPID CITY     CLOUDY    28  23  81 NW16      29.87R WCI  16
$$

REGIONAL REPORTS...WYOMING/IDAHO/WASHINGTON

CITY           SKY/WX    TMP DP  RH WIND       PRES   REMARKS
GILLETTE       CLOUDY    25  25 100 SW7       29.82R WCI  17
SHERIDAN       CLOUDY    28  26  92 CALM      29.81S
CODY           CLOUDY    34  32  93 NE3       29.79R FOG
YELLOWSTONE LA   N/A     26  24  92 VRB3      29.81S
IDAHO FALLS    MOCLDY    40  33  76 SW15      29.82F
SALMON         CLOUDY    37  36  93 CALM      29.77S
BOISE          CLOUDY    45  41  86 SE8       29.85F
SPOKANE        LGT RAIN  44  41  89 S5        29.70F
$$

REGIONAL REPORTS...ALBERTA

CITY           SKY/WX    TMP DP  RH WIND       PRES   REMARKS
EDMONTON       CLOUDY    30  27  86 SE9       29.80F WCI  22
CALGARY        MOCLDY    28  25  86 SE5       29.71F FOG
LETHBRIDGE     SNOW      30  30 100 E3        29.74F VSB 1/2
MEDICINE HAT   MOCLDY    37  36  93 SW9       29.76S WCI  31
CARDSTON         N/A     32  34 100 E1          N/A
MILK RIVER       N/A     32  32 100 E6          N/A  WCI  26
$$

REGIONAL REPORTS...SASKATCHEWAN

CITY           SKY/WX    TMP DP  RH WIND       PRES   REMARKS
SWIFT CURRENT  FLURRIES  30  28  93 SE18G25   29.83S WCI  18
REGINA         PTSUNNY   27  18  69 SE13      29.98F WCI  16
SASKATOON      FLURRIES  30  27  86 E10       29.97F WCI  21
CYPRESS HILLS    N/A     28  27  93 SE9         N/A  WCI  20
VAL MARIE        N/A     32  27  80 SE13        N/A  WCI  22
ROCKGLEN         N/A     28  25  86 SE10        N/A  WCI  19
ASSINIBOIA       N/A     30  28  93 E10         N/A  WCI  21
$$



USA.gov is the U.S. government's official web portal to all federal, state and local government web resources and services.